IGO523 VOHS-VAPO

Flight info

Callsign IGO523
Flight time 0h 44m
Altitude 36000
Route TAMIV5 GODEP W28 LUKTI
Aircraft A20N/M-SDE2E3FGHIRWXY/LB1

Departure

Time 2026-05-04 09:09
Airport Rajiv Gandhi International Airport (VOHS)

Arrival

Time 2026-05-04 09:53
Airport Pune International Airport (VAPO)
Time Latitude Longitude Altitude Speed Heading
2026-05-04 08:54 17.23440 78.42892 1979 ft 0 kts 358°
2026-05-04 09:01 17.23323 78.42862 1981 ft 0 kts 68°
2026-05-04 09:01 17.23325 78.42868 1981 ft 1 kts 68°
2026-05-04 09:01 17.23326 78.42870 1982 ft 0 kts 69°
2026-05-04 09:03 17.23330 78.42887 1980 ft 5 kts 76°
2026-05-04 09:03 17.23330 78.42932 1979 ft 8 kts 89°
2026-05-04 09:03 17.23331 78.43006 1979 ft 12 kts 89°
2026-05-04 09:03 17.23332 78.43103 1979 ft 13 kts 89°
2026-05-04 09:04 17.23269 78.43157 1983 ft 15 kts 171°
2026-05-04 09:04 17.23154 78.43163 1981 ft 18 kts 181°
2026-05-04 09:04 17.23092 78.43239 1979 ft 17 kts 83°
2026-05-04 09:04 17.23096 78.43372 1978 ft 20 kts 88°
2026-05-04 09:05 17.23097 78.43523 1979 ft 22 kts 90°
2026-05-04 09:05 17.23095 78.43691 1979 ft 24 kts 90°
2026-05-04 09:05 17.23096 78.43873 1979 ft 26 kts 91°
2026-05-04 09:05 17.23093 78.44068 1981 ft 27 kts 87°
2026-05-04 09:06 17.23103 78.44274 1980 ft 29 kts 89°
2026-05-04 09:07 17.22903 78.44836 1980 ft 0 kts 268°
2026-05-04 09:08 17.22901 78.44762 1980 ft 39 kts 270°
2026-05-04 09:08 17.22901 78.44212 1982 ft 108 kts 269°
2026-05-04 09:08 17.22904 78.43238 2065 ft 150 kts 272°
2026-05-04 09:08 17.22875 78.42102 2520 ft 162 kts 269°
2026-05-04 09:09 17.22815 78.40876 3061 ft 174 kts 270°
2026-05-04 09:09 17.22798 78.39577 3579 ft 185 kts 272°
2026-05-04 09:09 17.22819 78.38143 3902 ft 208 kts 272°
2026-05-04 09:09 17.22832 78.36533 4356 ft 233 kts 272°
2026-05-04 09:10 17.22833 78.34748 4976 ft 257 kts 271°
2026-05-04 09:10 17.22898 78.32812 5738 ft 274 kts 278°
2026-05-04 09:10 17.23274 78.30851 6720 ft 275 kts 288°
2026-05-04 09:10 17.23883 78.28933 7609 ft 280 kts 289°
2026-05-04 09:11 17.24514 78.26999 8540 ft 283 kts 289°
2026-05-04 09:11 17.25135 78.25024 9461 ft 289 kts 288°
2026-05-04 09:11 17.25742 78.23001 10328 ft 296 kts 287°
2026-05-04 09:11 17.26363 78.20863 10713 ft 320 kts 286°
2026-05-04 09:12 17.27026 78.18543 11050 ft 343 kts 285°
2026-05-04 09:12 17.27718 78.16124 11750 ft 351 kts 285°
2026-05-04 09:14 17.32820 77.98215 17237 ft 381 kts 285°
2026-05-04 09:14 17.33583 77.95540 17962 ft 385 kts 285°
2026-05-04 09:14 17.34350 77.92849 18602 ft 389 kts 285°
2026-05-04 09:14 17.35135 77.90112 19254 ft 392 kts 285°
2026-05-04 09:15 17.35923 77.87370 19893 ft 394 kts 285°
2026-05-04 09:15 17.36710 77.84637 20510 ft 398 kts 285°
2026-05-04 09:15 17.37513 77.81852 21115 ft 401 kts 285°
2026-05-04 09:15 17.38324 77.79050 21739 ft 404 kts 284°
2026-05-04 09:17 17.44264 77.56678 25496 ft 424 kts 274°
2026-05-04 09:18 17.44607 77.53592 25934 ft 427 kts 274°
2026-05-04 09:18 17.44952 77.50490 26360 ft 429 kts 274°
2026-05-04 09:18 17.45317 77.47377 26778 ft 431 kts 275°
2026-05-04 09:18 17.45698 77.44293 27185 ft 433 kts 275°
2026-05-04 09:19 17.46099 77.41158 27579 ft 435 kts 275°
2026-05-04 09:19 17.46508 77.38009 27970 ft 437 kts 276°
2026-05-04 09:19 17.46922 77.34845 28339 ft 439 kts 276°
2026-05-04 09:19 17.47339 77.31655 28705 ft 441 kts 276°
2026-05-04 09:20 17.47756 77.28457 29060 ft 443 kts 276°
2026-05-04 09:20 17.48166 77.25287 29393 ft 445 kts 276°
2026-05-04 09:20 17.48582 77.22063 29740 ft 447 kts 276°
2026-05-04 09:20 17.48998 77.18823 30054 ft 449 kts 276°
2026-05-04 09:21 17.49415 77.15562 30358 ft 451 kts 276°
2026-05-04 09:21 17.49830 77.12304 30665 ft 453 kts 276°
2026-05-04 09:21 17.50246 77.09017 30974 ft 455 kts 276°
2026-05-04 09:21 17.50663 77.05724 31359 ft 454 kts 276°
2026-05-04 09:22 17.51073 77.02485 31776 ft 453 kts 276°
2026-05-04 09:22 17.51485 76.99210 32174 ft 452 kts 276°
2026-05-04 09:22 17.51895 76.95950 32572 ft 451 kts 276°
2026-05-04 09:22 17.52304 76.92688 32972 ft 450 kts 276°
2026-05-04 09:23 17.52711 76.89438 33361 ft 449 kts 276°
2026-05-04 09:23 17.53116 76.86197 33741 ft 448 kts 276°
2026-05-04 09:23 17.53521 76.82956 34078 ft 447 kts 276°
2026-05-04 09:23 17.53925 76.79727 34394 ft 446 kts 276°
2026-05-04 09:25 17.57140 76.57371 35848 ft 442 kts 281°
2026-05-04 09:25 17.57738 76.54208 35847 ft 442 kts 281°
2026-05-04 09:26 17.58908 76.47878 35847 ft 441 kts 280°
2026-05-04 09:26 17.60042 76.41586 35852 ft 442 kts 280°
2026-05-04 09:27 17.61173 76.35243 35840 ft 441 kts 280°
2026-05-04 09:27 17.62300 76.28903 35842 ft 441 kts 280°
2026-05-04 09:28 17.63422 76.22580 35844 ft 441 kts 280°
2026-05-04 09:28 17.64545 76.16239 35847 ft 441 kts 280°
2026-05-04 09:29 17.65655 76.09956 35849 ft 441 kts 280°
2026-05-04 09:29 17.66778 76.03609 35853 ft 441 kts 281°
2026-05-04 09:30 17.68481 75.97442 35857 ft 442 kts 291°
2026-05-04 09:30 17.71045 75.91572 35856 ft 442 kts 295°
2026-05-04 09:31 17.73688 75.85741 35851 ft 442 kts 295°
2026-05-04 09:31 17.76288 75.79894 35850 ft 442 kts 294°
2026-05-04 09:32 17.78853 75.74069 35838 ft 441 kts 294°
2026-05-04 09:34 17.89104 75.50686 35738 ft 440 kts 294°
2026-05-04 09:34 17.90385 75.47759 35286 ft 441 kts 294°
2026-05-04 09:34 17.91672 75.44820 34479 ft 446 kts 294°
2026-05-04 09:35 17.92981 75.41832 33404 ft 454 kts 294°
2026-05-04 09:35 17.94309 75.38799 32284 ft 460 kts 294°
2026-05-04 09:35 17.95655 75.35726 31077 ft 461 kts 294°
2026-05-04 09:35 17.96972 75.32718 30137 ft 456 kts 294°
2026-05-04 09:37 18.05977 75.12077 25989 ft 435 kts 293°
2026-05-04 09:37 18.07233 75.09193 25348 ft 431 kts 293°
2026-05-04 09:38 18.08482 75.06326 24701 ft 427 kts 293°
2026-05-04 09:38 18.09687 75.03556 24084 ft 424 kts 293°
2026-05-04 09:38 18.10921 75.00718 23445 ft 421 kts 293°
2026-05-04 09:38 18.12136 74.97919 22722 ft 417 kts 293°
2026-05-04 09:39 18.13325 74.95175 22157 ft 410 kts 293°
2026-05-04 09:39 18.14492 74.92474 21540 ft 405 kts 293°
2026-05-04 09:39 18.15656 74.89775 20925 ft 400 kts 293°
2026-05-04 09:39 18.16805 74.87109 20303 ft 397 kts 293°
2026-05-04 09:40 18.17955 74.84444 19689 ft 393 kts 294°
2026-05-04 09:40 18.19074 74.81849 19080 ft 390 kts 294°
2026-05-04 09:40 18.20186 74.79267 18478 ft 388 kts 294°
2026-05-04 09:40 18.21300 74.76676 17816 ft 386 kts 294°
2026-05-04 09:41 18.22402 74.74114 17229 ft 381 kts 294°
2026-05-04 09:42 18.30968 74.57518 13106 ft 359 kts 299°
2026-05-04 09:43 18.32189 74.55264 12541 ft 347 kts 299°
2026-05-04 09:43 18.33353 74.53102 12008 ft 335 kts 299°
2026-05-04 09:43 18.34464 74.51034 11475 ft 324 kts 300°
2026-05-04 09:43 18.35567 74.48976 10969 ft 315 kts 300°
2026-05-04 09:44 18.36641 74.46967 10425 ft 316 kts 300°
2026-05-04 09:44 18.37714 74.44955 10084 ft 310 kts 300°
2026-05-04 09:44 18.38751 74.43012 9956 ft 298 kts 301°
2026-05-04 09:46 18.45636 74.30241 7731 ft 279 kts 301°
2026-05-04 09:46 18.46591 74.28484 7333 ft 278 kts 300°
2026-05-04 09:46 18.47552 74.26715 6993 ft 275 kts 300°
2026-05-04 09:47 18.48483 74.24993 6636 ft 275 kts 300°
2026-05-04 09:47 18.49427 74.23236 6330 ft 272 kts 299°
2026-05-04 09:49 18.55707 74.11541 4585 ft 238 kts 298°
2026-05-04 09:49 18.56488 74.10070 4475 ft 224 kts 298°
2026-05-04 09:49 18.57115 74.08618 4372 ft 209 kts 285°
2026-05-04 09:51 18.57681 74.00632 3270 ft 153 kts 273°
2026-05-04 09:51 18.57757 73.99562 3071 ft 141 kts 273°
2026-05-04 09:51 18.57819 73.98555 2914 ft 133 kts 271°
2026-05-04 09:51 18.57878 73.97585 2771 ft 128 kts 273°
2026-05-04 09:52 18.57934 73.96678 2612 ft 123 kts 272°
2026-05-04 09:52 18.57994 73.95764 2383 ft 123 kts 274°
2026-05-04 09:52 18.58051 73.94853 2226 ft 135 kts 272°
2026-05-04 09:52 18.58112 73.93868 2070 ft 134 kts 273°
2026-05-04 09:53 18.58170 73.92894 1971 ft 132 kts 272°
2026-05-04 09:53 18.58208 73.92257 1924 ft 130 kts 273°
2026-05-04 09:53 18.58259 73.91307 1923 ft 42 kts 274°
2026-05-04 09:53 18.58229 73.91108 1923 ft 25 kts 242°
2026-05-04 09:54 18.58197 73.91052 1923 ft 9 kts 223°
2026-05-04 09:54 18.58131 73.91031 1923 ft 12 kts 188°
2026-05-04 09:54 18.58083 73.91023 1923 ft 1 kts 188°
2026-05-04 09:54 18.58038 73.91015 1923 ft 9 kts 192°
2026-05-04 09:55 18.58014 73.91010 1924 ft 3 kts 189°
2026-05-04 09:55 18.57988 73.91006 1922 ft 0 kts 188°